DW6561 Weather Reports


time (UTC)temp
F
wind
direction
speed
knots
gust
knots
rain 1hr
in
rain 24hr
in
rain mn
in
humidity
%
barometer
mb
20260507014525 76 297 0.0 3.5 0.00 0.00 0.00 44 1012.1
20260507011516 76 158 5.2 14.8 0.00 0.00 0.00 43 1011.5
20260507010029 77 166 6.1 14.8 0.00 0.00 0.00 43 1011.5
20260507003002 78 171 7.0 13.0 0.00 0.00 0.00 42 1011.4
20260507001502 78 224 3.5 13.0 0.00 0.00 0.00 42 1011.4
20260507000004 79 172 2.6 13.9 0.00 0.00 0.00 41 1011.4
20260506234504 79 160 7.0 13.9 0.00 0.00 0.00 39 1011.2
20260506233002 79 165 7.0 17.4 0.00 0.00 0.00 39 1011.4
20260506231503 79 190 6.1 15.6 0.00 0.00 0.00 41 1011.5
20260506230002 80 178 5.2 14.8 0.00 0.00 0.00 40 1011.6
20260506224504 80 96 6.1 13.0 0.00 0.00 0.00 39 1011.7
20260506223007 80 166 4.3 15.6 0.00 0.00 0.00 37 1011.9
20260506220003 80 66 5.2 13.0 0.00 0.00 0.00 36 1012.3
20260506214503 80 249 3.5 12.2 0.00 0.00 0.00 36 1012.4
20260506213007 80 184 4.3 14.8 0.00 0.00 0.00 36 1012.7
20260506211504 80 217 6.1 13.9 0.00 0.00 0.00 36 1012.9
20260506204507 80 171 4.3 13.0 0.00 0.00 0.00 38 1013.2
20260506203013 80 170 6.1 11.3 0.00 0.00 0.00 37 1013.2
20260506200007 79 216 3.5 13.9 0.00 0.00 0.00 40 1013.3
20260506194505 79 211 7.0 16.5 0.00 0.00 0.00 38 1013.4
20260506193006 78 217 2.6 12.2 0.00 0.00 0.00 41 1013.4
20260506191507 77 109 7.0 13.9 0.00 0.00 0.00 41 1013.4
20260506190009 75 192 7.0 16.5 0.00 0.00 0.00 45 1013.5
20260506183013 74 159 6.1 17.4 0.00 0.00 0.00 47 1013.6
20260506181520 73 109 7.0 13.9 0.00 0.00 0.00 48 1013.8
20260506180009 72 240 7.8 13.9 0.00 0.00 0.00 51 1013.9
20260506174515 71 175 6.1 14.8 0.00 0.00 0.00 53 1013.9
20260506173013 70 182 7.8 16.5 0.00 0.00 0.00 55 1014.0
20260506171520 69 76 5.2 13.0 0.00 0.00 0.00 56 1014.2
20260506164517 67 126 6.1 16.5 0.00 0.00 0.00 59 1014.3
20260506163022 65 117 7.0 14.8 0.00 0.00 0.00 63 1014.4
20260506154514 61 60 8.7 17.4 0.00 0.00 0.00 75 1014.0
20260506153010 62 123 7.0 14.8 0.00 0.00 0.00 69 1014.0
20260506151506 62 180 6.1 16.5 0.00 0.00 0.00 68 1014.0
20260506150002 61 161 6.1 13.9 0.00 0.00 0.00 70 1013.9
20260506144505 60 163 9.6 16.5 0.00 0.00 0.00 71 1013.9
20260506143006 59 167 5.2 13.0 0.00 0.00 0.00 71 1013.7
20260506141521 59 178 7.8 15.6 0.00 0.00 0.00 71 1013.6
20260506140007 59 205 5.2 15.6 0.00 0.00 0.00 71 1013.7
20260506134507 59 159 6.1 13.0 0.00 0.00 0.00 71 1013.5
20260506133009 59 207 6.1 10.4 0.00 0.00 0.00 70 1013.4
20260506130005 59 153 5.2 10.4 0.00 0.00 0.00 69 1012.9
20260506124522 59 159 3.5 11.3 0.00 0.00 0.00 69 1012.7
20260506123009 59 148 3.5 12.2 0.00 0.00 0.00 68 1012.7
20260506121516 59 236 4.3 8.7 0.00 0.00 0.00 69 1012.5
20260506120011 60 156 5.2 10.4 0.00 0.00 0.00 67 1012.5
20260506113008 60 202 4.3 8.7 0.00 0.00 0.00 68 1012.2
20260506111510 60 197 4.3 9.6 0.00 0.00 0.00 70 1012.2
20260506110016 60 225 4.3 8.7 0.00 0.00 0.00 69 1012.1
20260506104522 60 141 4.3 8.7 0.00 0.00 0.00 68 1012.0
20260506103022 61 167 3.5 8.7 0.00 0.00 0.00 68 1011.9
20260506101531 62 161 3.5 9.6 0.00 0.00 0.00 66 1012.0
20260506094523 63 213 1.7 9.6 0.00 0.00 0.00 64 1011.9
20260506093021 63 252 0.9 10.4 0.00 0.00 0.00 63 1011.9
20260506091524 63 184 4.3 12.2 0.00 0.00 0.00 62 1011.7
20260506090006 65 175 5.2 11.3 0.00 0.00 0.00 59 1011.5
20260506084507 65 164 6.1 12.2 0.00 0.00 0.00 56 1011.3
20260506083003 67 153 5.2 10.4 0.00 0.00 0.00 54 1011.2
20260506081509 68 212 3.5 12.2 0.00 0.00 0.00 50 1011.1
20260506073003 70 142 3.5 10.4 0.00 0.00 0.00 46 1011.1
20260506071503 69 161 3.5 10.4 0.00 0.00 0.00 47 1011.1
20260506061503 70 139 1.7 7.0 0.00 0.00 0.00 48 1011.0
20260506044510 70 101 0.9 3.5 0.00 0.00 0.00 47 1011.0
20260506043008 70 131 0.9 7.0 0.00 0.00 0.00 45 1010.9
20260506041508 71 161 1.7 6.1 0.00 0.00 0.00 45 1010.8
20260506040005 72 132 2.6 7.0 0.00 0.00 0.00 44 1010.8
20260506034510 73 138 1.7 5.2 0.00 0.00 0.00 42 1010.7
20260506033010 74 134 0.9 5.2 0.00 0.00 0.00 42 1010.6
20260506031522 76 136 1.7 5.2 0.00 0.00 0.00 41 1010.3
20260506024509 78 116 0.9 2.6 0.00 0.00 0.00 37 1010.1
20260506023007 79 167 0.9 3.5 0.00 0.00 0.00 35 1010.1
20260506021513 80 107 0.0 3.5 0.00 0.00 0.00 34 1010.1
20260506020023 81 112 0.9 3.5 0.00 0.00 0.00 34 1010.1